Regional Weather Roundup
Issued by NWS Newport/Morehead, NC

Current Version | Previous Version | Text Only | Print | Product List | Glossary Off
Versions: 1 2 3 4 5 6 7 8 9 10 11 12 13 14 15 16 17 18 19 20 21 22 23 24 25 26 27 28 29 30 31 32 33 34 35 36 37 38 39 40 41 42 43 44 45 46 47 48 49 50
000 ASUS42 KMHX 291710 RWRMHX WEATHER ROUNDUP FOR EASTERN NORTH CAROLINA NATIONAL WEATHER SERVICE NEWPORT/MOREHEAD CITY NC 100 PM EDT TUE JUL 29 2014 NOTE: "FAIR" INDICATES FEW OR NO CLOUDS BELOW 12,000 FEET WITH NO SIGNIFICANT WEATHER AND/OR OBSTRUCTIONS TO VISIBILITY NCZ015>017-031-032-045>047-102-103-291800- NORTH COAST CITY SKY/WX TMP DP RH WIND PRES REMARKS EDENTON MOSUNNY 78 64 61 N8 29.93S ELIZABETH CITY PTSUNNY 78 62 57 CALM 29.92S KITTY HAWK SUNNY 78 66 64 N9 29.92R MANTEO NOT AVBL $$ NCZ045>047-081-094-103-104-291800- CENTRAL COAST CITY SKY/WX TMP DP RH WIND PRES REMARKS FRISCO PTSUNNY 78 67 68 VRB7 29.92R SWANQUARTER N/A 81 N/A N/A N1G8 29.88S $$ NCZ095-097-098-100-101-291800- SOUTHERN COAST CITY SKY/WX TMP DP RH WIND PRES REMARKS BEAUFORT PTSUNNY 82 68 62 NE9 29.91S CEDAR ISLAND N/A 81 N/A N/A VRB5 29.97R JACKSONVILLE SUNNY 82 62 50 N7 29.91S NEWPORT NOT AVBL PINEY ISLAND MOSUNNY 82 68 62 NE8 29.92R WILMINGTON PTSUNNY 84 66 54 NE6 29.91S $$ NCZ011>013-027>030-043-044-078>080-089-090>093-098-291800- COASTAL PLAIN CITY SKY/WX TMP DP RH WIND PRES REMARKS AHOSKIE SUNNY 76 57 50 CALM 29.95R CLINTON SUNNY 81 63 54 N6 29.94S ELIZABETHTOWN SUNNY 82 61 49 N3 29.93S GOLDSBORO SUNNY 79 63 57 N7 29.92S GREENVILLE MOSUNNY 79 61 53 NE9 29.95S HAVELOCK MOSUNNY 82 66 58 NE8 29.92S KENANSVILLE SUNNY 80 60 51 N3 29.94S KINSTON SUNNY 79 61 53 N7 29.94S NEW BERN MOSUNNY 83 64 52 E8 29.93S RICHLANDS SUNNY 82 61 47 NW3 29.92S ROANOKE RAPIDS NOT AVBL ROCKY MOUNT SUNNY 80 57 45 VRB5 29.95S WASHINGTON SUNNY 78 61 57 N7 29.93S WHITEVILLE SUNNY 82 63 52 N3 29.92S $$ AMZ130-135-150-152-154-156-158-170-250-252-270-ANZ085-086-088-633-658-670-291800- MARINE OBSERVATIONS STATION/POSITION TIME TEMP WIND PRES WAVE SWELL AIR SEA DIR/SP/G HT/PER HT/PER (UTC) (F) (DEG/KT/KT) (MB) (FT/S) (FT/S) CHESAPEAKE LIGHT NOT AVBL BUOY 44014 1700 74 78 350/ 8/ 10 1012.9 3/ 8 3/ 8 DUCK 1700 73 69 360/ 12/ 14 1012.5 2E DUCK 1600 N/A 3/ 4 OREGON INLET 1700 77 78 30/ 10/ 13 1013.1 BUOY 44095 1700 79 N/A 3/ 8 20E OREGON INLET NOT AVBL HATTERAS CG 1700 78 80 30/ 8/ 14 1013.3 DIAMOND BUOY 1700 VRB 14/ 16 1012.3 4/ 8 3/ 8 CAPE LOOKOUT 1600 79 10/ 9/ 12 1012.4 BEAUFORT LAB 1700 79 81 10/ 9/ 12 1012.4 30 SE NEW RIVER 1600 78 81 30/ 14/ 16 1012.7 5 SE WRIGHTSVILL 1600 76 81 30/ 6/ 8 N/A BUOY 41002 1551 78 81 190/ 17/ 21 1014.2 5/ 8 5/ 8 BUOY 41004 1700 81 84 20/ 10/ 12 1011.7 4/ 5 3/ 5 $$

USA.gov is the U.S. government's official web portal to all federal, state and local government web resources and services.